Weather History for Altus AFB, OK

Change the Weather History Date:

Tuesday, February 4, 2014

  Actual Average Record
Temperature  
Mean Temperature 32 °F -  
Max Temperature 37 °F 51 °F 37 °F (2014)
Min Temperature 26 °F 28 °F 26 °F (2014)
Degree Days  
Heating Degree Days 32    
Moisture  
Dew Point 31 °F    
Average Humidity 96    
Maximum Humidity 100    
Minimum Humidity 69    
Precipitation  
Precipitation 0.12 in - - ()
Sea Level Pressure  
Sea Level Pressure 29.96 in    
Wind  
Wind Speed 6 mph (NE)    
Max Wind Speed 24 mph    
Max Gust Speed 30 mph    
Visibility 5 miles    
Events Rain , Snow    
Averages and records for this station are not official NWS values.
T = Trace of Precipitation, MM = Missing Value Source: NWS Daily Summary

Daily Weather History Graph

Daily Weather History Graph

Search for Another Location

Airport:

Trip Planner

Search our weather history database for the weather conditions in past years. The results will help you decide how hot, cold, wet, or windy it might be!

Date:

Astronomy

Feb. 04, 2014 Rise Set
Actual Time 7:32 AM CST 6:09 PM CST
Civil Twilight 7:06 AM CST 6:35 PM CST
Nautical Twilight 6:36 AM CST 7:05 PM CST
Astronomical Twilight 6:07 AM CST 7:35 PM CST
Moon 10:27 AM CST (2/4) 11:48 PM CST (2/4)
Length of Visible Light 11h 29m
Length of Day
10h 36m
Waxing Crescent, 29% of the Moon is Illuminated
Feb 4
Waxing Crescent
Feb 6
First Quarter
Feb 14
Full
Feb 22
Last Quarter
Mar 1
New

Hourly Weather History & Observations

Time (CST) Temp. Windchill Dew Point Humidity Pressure Visibility Wind Dir Wind Speed Gust Speed Precip Events Conditions
12:08 AM 30.2 °F - 30.2 °F 100% 30.02 in 3.0 mi NNE 2.3 mph - N/A Rain Light Freezing Rain
12:11 AM 30.2 °F - 30.2 °F 100% 30.02 in 2.5 mi NE 2.3 mph - N/A   Light Freezing Drizzle
12:14 AM 30.2 °F 26.7 °F 30.2 °F 100% 30.02 in 2.5 mi NE 3.5 mph - N/A Rain Light Freezing Rain
12:19 AM 30.2 °F 25.4 °F 30.2 °F 100% 30.01 in 2.5 mi ENE 4.6 mph - N/A Rain Light Freezing Rain
12:24 AM 30.2 °F 26.7 °F 30.2 °F 100% 30.01 in 2.5 mi NE 3.5 mph - N/A Rain Light Freezing Rain
12:29 AM 30.2 °F 25.4 °F 30.2 °F 100% 30.01 in 2.5 mi NE 4.6 mph - N/A Rain Light Freezing Rain
12:30 AM 30.2 °F 25.4 °F 30.2 °F 100% 30.01 in 2.5 mi NE 4.6 mph - N/A   Overcast
12:35 AM 30.2 °F 25.4 °F 30.2 °F 100% 30.01 in 2.5 mi NE 4.6 mph - N/A   Overcast
12:40 AM 30.2 °F 24.3 °F 30.2 °F 100% 30.00 in 2.5 mi NE 5.8 mph - N/A   Overcast
12:45 AM 32.0 °F 26.4 °F 32.0 °F 100% 30.00 in 3.0 mi NE 5.8 mph - N/A   Overcast
12:50 AM 32.0 °F 25.6 °F 32.0 °F 100% 30.00 in 3.0 mi ENE 6.9 mph - N/A Rain Light Freezing Rain
12:55 AM 32.0 °F 24.8 °F 32.0 °F 100% 29.99 in 2.5 mi ENE 8.1 mph - N/A   Overcast
12:57 AM 32.0 °F 24.8 °F 32.0 °F 100% 29.99 in 2.5 mi ENE 8.1 mph - N/A   Overcast
12:58 AM 30.6 °F 23.1 °F 30.6 °F 100% 30.02 in 2.5 mi ENE 8.1 mph - 0.03 in   Overcast
1:03 AM 32.0 °F 24.8 °F 32.0 °F 100% 29.99 in 2.5 mi ENE 8.1 mph - N/A   Overcast
1:53 AM 32.0 °F 25.6 °F 32.0 °F 100% 29.97 in 3.0 mi ENE 6.9 mph - N/A   Overcast
1:58 AM 31.3 °F 25.6 °F 31.3 °F 100% 30.01 in 2.5 mi ENE 5.8 mph - 0.01 in   Overcast
2:00 AM 32.0 °F 26.4 °F 32.0 °F 100% 29.97 in 2.5 mi ENE 5.8 mph - N/A   Light Drizzle
2:01 AM 32.0 °F 26.4 °F 32.0 °F 100% 29.96 in 2.5 mi ENE 5.8 mph - N/A   Light Freezing Drizzle
2:06 AM 32.0 °F 26.4 °F 32.0 °F 100% 29.96 in 2.5 mi ENE 5.8 mph - N/A   Light Freezing Drizzle
2:11 AM 32.0 °F 25.6 °F 32.0 °F 100% 29.96 in 2.5 mi ENE 6.9 mph - N/A   Light Freezing Drizzle
2:16 AM 32.0 °F 25.6 °F 32.0 °F 100% 29.96 in 3.0 mi ENE 6.9 mph - N/A   Light Freezing Drizzle
2:21 AM 32.0 °F 26.4 °F 32.0 °F 100% 29.95 in 3.0 mi ENE 5.8 mph - N/A   Light Freezing Drizzle
2:26 AM 32.0 °F 26.4 °F 32.0 °F 100% 29.95 in 3.0 mi East 5.8 mph - N/A Rain Light Freezing Rain
2:36 AM 32.0 °F 27.5 °F 32.0 °F 100% 29.95 in 3.0 mi East 4.6 mph - N/A Rain Light Freezing Rain
2:41 AM 32.0 °F 27.5 °F 32.0 °F 100% 29.95 in 3.0 mi East 4.6 mph - N/A Rain Light Freezing Rain
2:46 AM 32.0 °F 27.5 °F 32.0 °F 100% 29.95 in 3.0 mi East 4.6 mph - N/A Rain Light Freezing Rain
2:51 AM 32.0 °F 27.5 °F 32.0 °F 100% 29.94 in 3.0 mi ENE 4.6 mph - N/A Rain Light Freezing Rain
2:56 AM 32.0 °F 27.5 °F 32.0 °F 100% 29.95 in 3.0 mi East 4.6 mph - N/A Rain Light Freezing Rain
2:58 AM 32.0 °F 27.5 °F 32.0 °F 100% 29.98 in 3.0 mi ENE 4.6 mph - 0.02 in Rain Light Freezing Rain
3:03 AM 32.0 °F 27.5 °F 32.0 °F 100% 29.94 in 3.0 mi ENE 4.6 mph - N/A Rain Light Freezing Rain
3:13 AM 32.0 °F 27.5 °F 32.0 °F 100% 29.93 in 3.0 mi ENE 4.6 mph - N/A Rain Light Freezing Rain
3:18 AM 32.0 °F 28.7 °F 32.0 °F 100% 29.94 in 3.0 mi ENE 3.5 mph - N/A Rain Light Freezing Rain
3:23 AM 32.0 °F 28.7 °F 32.0 °F 100% 29.93 in 3.0 mi ENE 3.5 mph - N/A Rain Light Freezing Rain
3:28 AM 32.0 °F 28.7 °F 32.0 °F 100% 29.93 in 3.0 mi ENE 3.5 mph - N/A Rain Light Freezing Rain
3:33 AM 32.0 °F 28.7 °F 32.0 °F 100% 29.93 in 2.5 mi ENE 3.5 mph - N/A Rain Light Freezing Rain
3:34 AM 32.0 °F 28.7 °F 32.0 °F 100% 29.93 in 2.5 mi ENE 3.5 mph - N/A Snow Light Snow
3:39 AM 32.0 °F 28.7 °F 32.0 °F 100% 29.93 in 2.5 mi ENE 3.5 mph - N/A Snow Light Snow
3:44 AM 32.0 °F - 32.0 °F 100% 29.94 in 2.5 mi NE 2.3 mph - N/A Rain Light Freezing Rain
3:58 AM 32.2 °F - 32.2 °F 100% 29.97 in 2.5 mi NE 2.3 mph - 0.03 in Snow Light Snow
4:03 AM 32.0 °F - 32.0 °F 100% 29.94 in 2.5 mi NE 2.3 mph - N/A Snow Light Snow
4:09 AM 32.0 °F - 32.0 °F 100% 29.93 in 2.5 mi NNE 2.3 mph - N/A Rain Light Freezing Rain
4:19 AM 32.0 °F 28.7 °F 32.0 °F 100% 29.92 in 2.5 mi NE 3.5 mph - N/A Rain Light Freezing Rain
4:24 AM 32.0 °F 28.7 °F 32.0 °F 100% 29.91 in 2.0 mi NE 3.5 mph - N/A Rain Light Freezing Rain
4:26 AM 32.0 °F 28.7 °F 32.0 °F 100% 29.92 in 2.5 mi NE 3.5 mph - N/A Rain Light Freezing Rain
4:28 AM 32.0 °F 28.7 °F 32.0 °F 100% 29.92 in 2.5 mi NE 3.5 mph - N/A Rain Light Freezing Rain
4:43 AM 32.0 °F 28.7 °F 32.0 °F 100% 29.91 in 2.5 mi NE 3.5 mph - N/A   Light Freezing Drizzle
4:53 AM 32.0 °F - 32.0 °F 100% 29.92 in 2.5 mi NE 2.3 mph - N/A   Light Freezing Drizzle
4:58 AM 31.8 °F - 31.8 °F 100% 29.95 in 2.5 mi NE 2.3 mph - 0.02 in   Light Freezing Drizzle
5:08 AM 32.0 °F - 32.0 °F 100% 29.92 in 2.5 mi ENE 2.3 mph - N/A   Light Freezing Drizzle
5:18 AM 32.0 °F - 32.0 °F 100% 29.92 in 2.5 mi ENE 2.3 mph - N/A   Light Freezing Drizzle
5:28 AM 32.0 °F 28.7 °F 32.0 °F 100% 29.92 in 2.5 mi ENE 3.5 mph - N/A   Light Freezing Drizzle
5:38 AM 32.0 °F 28.7 °F 32.0 °F 100% 29.91 in 2.5 mi ENE 3.5 mph - N/A   Light Freezing Drizzle
5:43 AM 32.0 °F 28.7 °F 32.0 °F 100% 29.91 in 2.0 mi ENE 3.5 mph - N/A   Light Freezing Drizzle
5:48 AM 32.0 °F 28.7 °F 32.0 °F 100% 29.91 in 2.5 mi ENE 3.5 mph - N/A   Light Freezing Drizzle
5:58 AM 31.6 °F 28.3 °F 31.6 °F 100% 29.95 in 2.5 mi ENE 3.5 mph - 0.00 in   Light Freezing Drizzle
6:03 AM 32.0 °F 28.7 °F 32.0 °F 100% 29.90 in 2.5 mi ENE 3.5 mph - N/A   Light Freezing Drizzle
6:08 AM 32.0 °F - 32.0 °F 100% 29.90 in 2.5 mi NE 2.3 mph - N/A   Light Freezing Drizzle
6:13 AM 32.0 °F - 32.0 °F 100% 29.91 in 2.0 mi ENE 2.3 mph - N/A   Light Freezing Drizzle
6:23 AM 32.0 °F - 32.0 °F 100% 29.91 in 2.5 mi Calm Calm - N/A Rain Light Freezing Rain
6:33 AM 32.0 °F - 32.0 °F 100% 29.91 in 2.5 mi Calm Calm - N/A Rain Light Freezing Rain
6:38 AM 32.0 °F - 32.0 °F 100% 29.92 in 2.0 mi Calm Calm - N/A Rain Light Freezing Rain
6:43 AM 32.0 °F - 32.0 °F 100% 29.92 in 1.8 mi ENE 1.2 mph - N/A Rain Light Freezing Rain
6:48 AM 32.0 °F - 32.0 °F 100% 29.92 in 1.8 mi SE 1.2 mph - N/A Snow Light Snow
6:58 AM 32.0 °F - 32.0 °F 100% 29.96 in 1.2 mi SE 2.3 mph - 0.00 in Snow Light Snow
7:03 AM 32.0 °F 28.7 °F 32.0 °F 100% 29.91 in 1.8 mi SE 3.5 mph - N/A Snow Light Snow
7:08 AM 32.0 °F - 32.0 °F 100% 29.91 in 2.0 mi SE 2.3 mph - N/A Snow Light Snow
7:16 AM 32.0 °F - 32.0 °F 100% 29.91 in 2.5 mi SSE 1.2 mph - N/A   Overcast
7:17 AM 32.0 °F - 32.0 °F 100% 29.91 in 2.5 mi SSE 1.2 mph - N/A   Light Freezing Drizzle
7:22 AM 32.0 °F - 32.0 °F 100% 29.91 in 2.5 mi SSE 2.3 mph - N/A   Light Freezing Drizzle
7:25 AM 32.0 °F - 32.0 °F 100% 29.91 in 2.5 mi SSE 2.3 mph - N/A Snow Light Snow
7:47 AM 32.0 °F - 32.0 °F 100% 29.91 in 3.0 mi South 2.3 mph - N/A Snow Light Snow
7:51 AM 32.0 °F - 32.0 °F 100% 29.91 in 3.0 mi South 1.2 mph - N/A   Overcast
7:58 AM 31.8 °F - 31.8 °F 100% 29.95 in 3.0 mi South 2.3 mph - 0.00 in   Overcast
8:13 AM 32.0 °F - 32.0 °F 100% 29.91 in 3.0 mi SE 2.3 mph - N/A   Overcast
8:58 AM 31.6 °F - 31.6 °F 100% 29.96 in 3.0 mi South 2.3 mph - N/A   Overcast
9:25 AM 32.0 °F 28.7 °F 32.0 °F 100% 29.92 in 3.0 mi South 3.5 mph - N/A   Overcast
9:30 AM 32.0 °F 28.7 °F 32.0 °F 100% 29.91 in 2.5 mi South 3.5 mph - N/A Snow Light Snow
9:40 AM 32.0 °F 28.7 °F 32.0 °F 100% 29.92 in 2.5 mi South 3.5 mph - N/A   Overcast
9:58 AM 31.8 °F 28.5 °F 31.8 °F 100% 29.95 in 3.0 mi SSW 3.5 mph - 0.00 in   Overcast
10:17 AM 32.0 °F - 32.0 °F 100% 29.92 in 4.0 mi SSW 2.3 mph - N/A   Overcast
10:47 AM 32.0 °F - 32.0 °F 100% 29.92 in 6.0 mi SW 2.3 mph - N/A   Overcast
10:58 AM 32.4 °F - 32.4 °F 100% 29.95 in 6.0 mi SW 2.3 mph - 0.01 in   Overcast
11:18 AM 32.0 °F 27.5 °F 32.0 °F 100% 29.92 in 5.0 mi WSW 4.6 mph - N/A   Overcast
11:58 AM 33.1 °F 30.0 °F 33.1 °F 100% 29.93 in 5.0 mi SW 3.5 mph - N/A   Overcast
12:23 PM 33.8 °F 26.4 °F 33.8 °F 100% 29.88 in 10.0 mi WSW 9.2 mph - N/A   Overcast
12:38 PM 33.8 °F 26.4 °F 33.8 °F 100% 29.87 in 10.0 mi WSW 9.2 mph - N/A   Overcast
12:48 PM 33.8 °F 25.8 °F 33.8 °F 100% 29.87 in 10.0 mi West 10.4 mph - N/A   Overcast
12:58 PM 34.2 °F 26.2 °F 34.0 °F 99% 29.90 in 10.0 mi WSW 10.4 mph - N/A   Overcast
1:18 PM 33.8 °F 25.8 °F 33.8 °F 100% 29.86 in 10.0 mi West 10.4 mph - N/A   Overcast
1:58 PM 34.2 °F 26.8 °F 34.0 °F 99% 29.89 in 10.0 mi WSW 9.2 mph - N/A   Overcast
2:58 PM 35.1 °F 27.4 °F 34.5 °F 98% 29.89 in 10.0 mi West 10.4 mph - N/A   Overcast
3:13 PM 35.6 °F 29.2 °F 33.8 °F 93% 29.86 in 10.0 mi West 8.1 mph - N/A   Overcast
3:58 PM 36.5 °F 31.0 °F 33.6 °F 89% 29.90 in 10.0 mi West 6.9 mph - N/A   Overcast
4:18 PM 37.4 °F 30.8 °F 33.8 °F 87% 29.89 in 10.0 mi WNW 9.2 mph - N/A   Overcast
4:33 PM 37.4 °F 29.8 °F 33.8 °F 87% 29.90 in 10.0 mi NW 11.5 mph - N/A   Overcast
4:58 PM 37.6 °F 30.0 °F 32.9 °F 83% 29.94 in 10.0 mi NW 11.5 mph - N/A   Overcast
5:08 PM 37.4 °F 31.4 °F 32.0 °F 81% 29.92 in 10.0 mi NNW 8.1 mph - N/A   Overcast
5:58 PM 37.2 °F 30.6 °F 32.7 °F 84% 29.98 in 10.0 mi NW 9.2 mph - N/A   Overcast
6:03 PM 37.4 °F 30.3 °F 32.0 °F 81% 29.96 in 10.0 mi NW 10.4 mph - N/A   Overcast
6:43 PM 37.4 °F 30.3 °F 32.0 °F 81% 29.99 in 10.0 mi NW 10.4 mph - N/A   Overcast
6:58 PM 36.9 °F 25.9 °F 32.2 °F 83% 30.04 in 10.0 mi NNW 21.9 mph 27.6 mph N/A   Overcast
7:03 PM 35.6 °F 26.2 °F 32.0 °F 87% 30.01 in 10.0 mi NNW 15.0 mph 27.6 mph N/A   Overcast
7:08 PM 35.6 °F 25.9 °F 32.0 °F 87% 30.02 in 10.0 mi NNW 16.1 mph - N/A   Overcast
7:13 PM 35.6 °F 25.2 °F 32.0 °F 87% 30.02 in 10.0 mi NNW 18.4 mph 25.3 mph N/A   Overcast
7:18 PM 35.6 °F 24.2 °F 32.0 °F 87% 30.02 in 10.0 mi NNW 21.9 mph 27.6 mph N/A   Overcast
7:23 PM 33.8 °F 22.8 °F 30.2 °F 87% 30.02 in 10.0 mi NNW 18.4 mph 27.6 mph N/A   Overcast
7:28 PM 33.8 °F 21.9 °F 30.2 °F 87% 30.03 in 10.0 mi NNW 21.9 mph 28.8 mph N/A   Overcast
7:48 PM 32.0 °F 20.1 °F 28.4 °F 87% 30.06 in 10.0 mi NNW 19.6 mph - N/A   Overcast
7:58 PM 32.9 °F 22.4 °F 26.1 °F 76% 30.11 in 10.0 mi NNW 16.1 mph - N/A   Mostly Cloudy
8:03 PM 32.0 °F 20.8 °F 26.6 °F 80% 30.07 in 10.0 mi NNW 17.3 mph 25.3 mph N/A   Mostly Cloudy
8:13 PM 32.0 °F 20.5 °F 24.8 °F 75% 30.08 in 10.0 mi NNW 18.4 mph - N/A   Mostly Cloudy
8:58 PM 32.5 °F 21.5 °F 25.3 °F 75% 30.16 in 10.0 mi NNW 17.3 mph - N/A   Overcast
9:48 PM 32.0 °F 19.8 °F 23.0 °F 69% 30.15 in 10.0 mi NNW 20.7 mph - N/A   Scattered Clouds
9:53 PM 32.0 °F 19.2 °F 23.0 °F 69% 30.15 in 10.0 mi NNW 23.0 mph 25.3 mph N/A   Mostly Cloudy
9:58 PM 30.4 °F 17.0 °F 23.5 °F 76% 30.19 in 10.0 mi NNW 23.0 mph - N/A   Mostly Cloudy
10:08 PM 32.0 °F 19.5 °F 23.0 °F 69% 30.16 in 10.0 mi NNW 21.9 mph - N/A   Mostly Cloudy
10:58 PM 28.9 °F 15.4 °F 21.9 °F 75% 30.23 in 10.0 mi North 21.9 mph 27.6 mph N/A   Overcast
11:58 PM 26.8 °F 11.9 °F 19.6 °F 74% 30.26 in 10.0 mi North 24.2 mph 29.9 mph N/A   Overcast